Vorticity
-1 -0 -3 0 6 6 5 6 1 0 1 5 7 8 8 9 10 8 5 8 6 8 7 8 6 3 0 6 7 10 10 34 7 -18 -7 -3 5 4 2 7 1 -1 10 10
4 7 -3 -11 8 15 5 2 5 2 14 11 9 8 5 8 8 7 3 4 6 4 4 3 4 4 6 7 5 1 4 -3 9 4 9 8 0 8 7 10 10 4 10 13
2 -7 0 9 8 6 9 2 -1 1 4 2 5 6 3 6 4 2 4 3 3 3 6 4 3 8 6 6 3 4 11 -3 -5 10 -2 13 7 7 6 11 3 11 13 5
-3 -2 4 2 8 3 3 7 8 -1 -5 6 2 5 8 4 4 4 4 5 6 8 9 8 6 8 13 14 8 6 9 4 2 5 12 -7 5 14 15 -1 9 14 1 0
7 2 16 12 12 12 0 16 16 19 8 5 4 7 6 8 10 12 12 10 10 7 9 4 8 8 7 9 8 10 -3 1 15 17 8 13 25 8 5 12 9 4 4 4
18 15 17 20 5 -9 7 11 8 5 4 5 6 11 13 13 9 8 6 6 8 8 8 10 12 10 8 8 8 -2 6 3 11 -0 18 13 8 3 12 7 6 3 2 4
7 9 8 6 1 11 8 6 7 5 5 11 14 15 10 9 11 13 15 17 19 20 17 15 15 15 16 15 16 19 16 14 17 15 10 14 5 9 4 3 3 3 3 4
7 5 2 7 11 10 8 6 6 10 16 15 11 14 16 7 4 6 5 7 5 3 3 4 6 9 12 10 12 10 10 11 10 9 15 14 5 6 4 4 5 7 4 2
5 5 7 6 6 8 7 9 16 11 15 5 8 0 2 4 3 3 3 2 2 3 5 5 5 5 10 12 12 10 9 8 8 4 2 8 10 5 5 9 7 3 3 1
11 11 11 6 7 7 13 12 11 10 4 7 1 7 8 4 3 5 4 3 4 5 6 4 5 3 5 9 11 13 11 9 8 8 6 6 5 7 4 5 2 2 2 7
9 8 11 9 9 13 9 11 9 3 4 1 0 6 4 2 4 6 3 5 2 5 7 6 6 5 4 4 7 10 9 9 8 8 8 6 6 6 4 0 1 9 5 2
10 8 12 18 13 8 8 8 3 4 3 -2 0 4 1 1 3 7 3 2 2 2 3 3 4 6 7 6 7 9 9 8 8 6 6 7 7 3 0 8 8 1 3 5
6 7 8 10 9 7 9 1 3 4 3 2 1 4 3 2 3 4 3 -0 1 1 1 2 4 6 6 8 9 9 8 6 6 6 6 5 2 5 10 2 2 4 7 8
6 7 6 11 7 7 6 3 3 2 2 2 4 5 5 3 1 4 4 5 2 3 1 0 4 4 5 7 10 9 8 6 5 6 3 4 9 5 2 3 4 9 9 9
17 12 7 12 9 6 3 3 3 2 3 4 1 3 3 4 5 5 3 7 6 3 5 2 2 4 5 8 9 8 8 6 8 5 5 9 4 3 3 8 10 9 7 8
12 14 12 5 8 7 3 2 2 2 4 3 4 4 4 2 4 4 6 5 9 6 6 3 5 7 7 8 7 9 7 8 6 8 7 3 3 4 9 7 10 7 8 7
11 9 7 6 7 9 7 6 4 2 2 5 5 2 4 4 3 5 6 8 6 9 4 4 7 7 7 7 7 7 9 8 8 5 3 3 7 8 7 9 8 7 8 27
7 8 10 11 11 10 9 8 5 4 4 4 6 4 4 4 4 6 4 8 8 8 5 6 7 7 6 6 9 10 8 7 4 4 4 8 8 8 7 10 8 6 29 18
7 7 8 9 8 7 10 12 11 9 6 5 5 5 3 5 5 6 7 7 9 9 7 6 7 8 7 11 9 8 7 5 3 6 9 6 8 9 10 8 7 30 17 16
5 5 6 6 7 9 8 11 11 10 11 7 6 6 6 7 7 6 7 9 9 8 6 7 8 9 9 8 10 8 4 3 5 8 7 8 10 9 8 9 25 19 12 27
5 4 6 7 6 3 6 8 8 8 5 8 8 8 10 7 6 6 10 9 7 6 8 10 9 7 9 7 7 5 5 4 7 9 8 9 10 8 8 22 20 12 19 31
10 7 8 6 4 4 6 6 7 5 6 9 10 10 8 6 8 9 10 9 7 7 10 7 7 8 7 8 6 5 4 7 7 8 11 10 9 8 21 23 13 14 28 29
8 7 9 8 9 8 6 7 8 8 8 9 9 9 9 10 11 10 8 6 8 9 8 8 9 9 7 4 2 6 8 4 1 9 12 9 8 17 22 16 14 20 28 23
5 6 6 5 6 4 5 10 10 10 10 10 10 11 11 9 8 7 7 9 8 10 10 11 7 6 3 4 8 10 8 2 1 14 11 9 17 22 20 13 17 26 24 18
10 8 5 8 8 8 11 10 11 11 11 10 9 8 8 8 9 10 7 7 11 12 8 8 3 2 5 11 10 6 3 2 14 12 10 14 22 21 11 19 21 23 20 16
6 5 6 11 11 13 13 12 10 10 9 8 7 7 10 11 8 5 10 12 11 8 3 3 4 8 11 10 6 4 3 12 14 11 12 22 21 11 17 19 23 19 17 16
Height
5780 5783 5787 5789 5791 5793 5796 5797 5798 5799 5801 5804 5806 5808 5810 5811 5812 5813 5814 5814 5815 5814 5813 5812 5813 5813 5811 5811 5810 5808 5805 5794 5795 5784 5783 5781 5777 5775 5771 5767 5764 5760 5755 5751
5780 5782 5786 5789 5791 5793 5795 5796 5798 5800 5802 5804 5805 5807 5809 5810 5810 5811 5811 5812 5811 5810 5809 5808 5808 5807 5806 5804 5802 5801 5799 5793 5790 5785 5780 5775 5771 5768 5765 5760 5756 5752 5747 5742
5780 5783 5785 5788 5790 5792 5793 5795 5798 5800 5801 5802 5804 5806 5807 5807 5808 5808 5808 5807 5807 5806 5805 5803 5801 5802 5800 5798 5795 5793 5790 5787 5781 5776 5772 5768 5764 5760 5755 5750 5745 5741 5736 5731
5779 5782 5784 5786 5789 5791 5793 5795 5797 5799 5801 5802 5802 5803 5803 5804 5804 5804 5803 5803 5802 5800 5799 5798 5796 5795 5793 5790 5787 5784 5781 5777 5773 5770 5765 5761 5757 5753 5747 5741 5737 5732 5727 5723
5779 5780 5782 5785 5788 5791 5793 5793 5795 5796 5798 5799 5799 5800 5800 5799 5799 5798 5798 5797 5796 5795 5794 5793 5791 5789 5787 5784 5780 5776 5772 5769 5766 5762 5757 5753 5747 5743 5738 5731 5726 5722 5717 5713
5777 5779 5781 5784 5787 5789 5790 5792 5793 5794 5795 5795 5795 5795 5795 5794 5794 5793 5792 5791 5791 5790 5789 5787 5785 5782 5778 5775 5772 5768 5765 5762 5757 5752 5747 5743 5738 5733 5726 5721 5716 5711 5705 5699
5775 5778 5781 5783 5786 5787 5788 5789 5790 5791 5791 5791 5792 5792 5791 5790 5790 5789 5789 5788 5787 5786 5784 5781 5778 5775 5771 5768 5765 5761 5757 5752 5747 5742 5737 5733 5728 5723 5718 5711 5705 5698 5691 5684
5774 5777 5778 5780 5782 5783 5784 5786 5787 5787 5789 5789 5789 5790 5789 5788 5788 5787 5786 5785 5783 5781 5779 5777 5774 5770 5766 5762 5758 5753 5749 5743 5738 5733 5729 5724 5719 5714 5707 5700 5693 5686 5678 5670
5771 5774 5775 5777 5778 5780 5781 5782 5784 5784 5785 5786 5787 5788 5788 5787 5786 5785 5783 5781 5779 5777 5774 5772 5769 5765 5761 5756 5751 5746 5741 5735 5730 5726 5721 5715 5708 5702 5696 5690 5682 5673 5663 5654
5769 5770 5772 5773 5775 5776 5777 5780 5781 5782 5783 5784 5785 5785 5785 5784 5783 5781 5780 5777 5775 5772 5769 5766 5762 5758 5754 5748 5743 5737 5731 5726 5721 5715 5709 5703 5697 5690 5683 5675 5666 5658 5649 5638
5765 5767 5769 5770 5771 5772 5775 5776 5778 5779 5780 5781 5782 5783 5780 5779 5778 5776 5775 5772 5770 5767 5764 5760 5756 5750 5745 5739 5733 5728 5723 5717 5711 5705 5698 5691 5684 5677 5669 5660 5652 5642 5631 5619
5761 5762 5764 5766 5767 5769 5771 5774 5775 5776 5778 5777 5777 5778 5775 5774 5773 5771 5768 5765 5763 5759 5755 5751 5746 5740 5734 5729 5724 5719 5712 5706 5700 5693 5686 5678 5671 5663 5655 5645 5634 5623 5611 5598
5758 5759 5761 5763 5767 5768 5769 5771 5772 5772 5773 5773 5772 5772 5770 5768 5767 5764 5761 5758 5754 5750 5745 5741 5736 5730 5725 5719 5713 5707 5701 5694 5688 5681 5674 5666 5658 5649 5639 5629 5618 5606 5594 5581
5754 5756 5758 5761 5762 5764 5766 5766 5767 5768 5768 5768 5768 5766 5763 5762 5761 5758 5754 5750 5746 5742 5737 5732 5726 5721 5715 5709 5703 5697 5690 5683 5676 5669 5661 5653 5644 5635 5625 5614 5602 5590 5577 5563
5749 5752 5755 5757 5759 5761 5762 5763 5763 5763 5763 5762 5762 5760 5757 5755 5753 5750 5746 5742 5738 5733 5728 5723 5717 5711 5705 5699 5692 5685 5678 5671 5663 5656 5648 5639 5630 5620 5610 5598 5585 5571 5558 5545
5747 5749 5751 5753 5755 5756 5757 5758 5758 5759 5757 5756 5754 5756 5749 5748 5744 5740 5736 5732 5728 5723 5718 5713 5707 5701 5695 5688 5681 5673 5666 5658 5651 5643 5635 5626 5616 5604 5592 5580 5568 5554 5540 5524
5744 5746 5748 5749 5750 5750 5751 5755 5753 5752 5751 5749 5748 5746 5742 5740 5736 5732 5728 5723 5719 5713 5708 5702 5696 5691 5684 5677 5669 5661 5654 5646 5638 5630 5620 5610 5600 5588 5575 5563 5549 5536 5520 5504
5741 5742 5743 5744 5745 5743 5748 5748 5746 5744 5743 5741 5739 5736 5732 5729 5727 5723 5717 5713 5708 5702 5696 5691 5685 5679 5671 5664 5656 5649 5641 5633 5624 5616 5606 5595 5584 5572 5559 5545 5531 5516 5502 5486
5736 5737 5738 5738 5739 5739 5740 5740 5739 5736 5736 5733 5729 5725 5723 5720 5716 5712 5706 5701 5696 5691 5685 5679 5673 5666 5658 5651 5644 5636 5628 5620 5611 5601 5590 5579 5567 5554 5541 5527 5513 5497 5484 5472
5731 5731 5732 5733 5731 5731 5732 5732 5730 5727 5726 5722 5719 5716 5713 5709 5705 5701 5695 5690 5684 5679 5672 5666 5661 5654 5647 5639 5631 5623 5615 5605 5595 5584 5573 5561 5549 5537 5524 5509 5495 5482 5469 5457
5725 5725 5725 5725 5723 5723 5723 5721 5719 5717 5716 5711 5709 5706 5702 5698 5694 5688 5683 5677 5672 5666 5660 5654 5648 5641 5633 5625 5617 5608 5599 5589 5578 5568 5556 5544 5532 5519 5506 5492 5479 5468 5457 5446
5719 5718 5719 5718 5716 5714 5713 5711 5709 5706 5702 5700 5698 5694 5690 5686 5681 5676 5670 5665 5660 5654 5648 5642 5634 5626 5619 5611 5602 5593 5583 5573 5563 5551 5539 5527 5515 5502 5489 5477 5465 5454 5443 5434
5714 5713 5712 5712 5710 5705 5702 5700 5697 5695 5692 5689 5685 5682 5678 5673 5668 5663 5658 5653 5647 5641 5634 5627 5619 5611 5604 5595 5587 5577 5567 5557 5547 5536 5524 5512 5499 5486 5474 5463 5452 5441 5431 5424
5705 5705 5703 5701 5699 5695 5691 5689 5686 5683 5680 5677 5673 5669 5665 5660 5656 5651 5645 5640 5633 5627 5620 5612 5605 5597 5588 5579 5570 5562 5553 5542 5532 5520 5508 5496 5484 5472 5460 5451 5440 5430 5422 5416
5697 5695 5692 5689 5687 5683 5682 5678 5675 5672 5669 5665 5661 5657 5653 5649 5644 5638 5632 5626 5619 5613 5606 5600 5591 5583 5574 5565 5556 5546 5537 5527 5516 5503 5492 5481 5469 5457 5447 5438 5428 5420 5413 5408
5684 5682 5679 5677 5675 5672 5671 5668 5665 5662 5658 5654 5650 5645 5641 5636 5630 5625 5618 5612 5605 5600 5592 5584 5576 5568 5559 5549 5540 5530 5521 5510 5499 5488 5477 5466 5455 5444 5435 5426 5418 5411 5405 5400